User: anonymous   Login
Location: Unspecified
(0.0000°N, 0.0000°E)
Time: 15:08:34
(UTC+01:00)
Language:

Cosmos 1980 Rocket - Orbit

View from above orbital plane
View from above orbital plane
View from above satellite
View from above satellite

Ground track
Ground track

The orbit data is extracted from the following two-line orbital elements,

1 19650U 88102B   15064.21207619  .00000227  00000-0  13991-3 0  9991
2 19650 071.0013 330.7465 0013764 004.1177 356.0057 14.15703783357813
Epoch (UTC): 05 March 2015 05:05:23
Eccentricity: 0.0013764
inclination: 71.0013°
perigee height: 830 km
apogee height: 850 km
right ascension of ascending node: 330.7465°
argument of perigee: 4.1177°
revolutions per day: 14.15703783
mean anomaly at epoch: 356.0057°
orbit number at epoch: 35781

The dashed part of the orbit path shows where the satellite is in the earth's shadow,  

DLR